Location: Unspecified
(41.5516°N, 88.1098°W)
Time: 15:18:19
(UTC-05:00)

HST - Visible Passes

Search period start: 01 October 2014 00:00
Search period end: 11 October 2014 00:00
Orbit: 547 x 551 km, 28.5° (Epoch: 30 September)

Date Brightness Start Highest point End Pass type
(mag) Time Alt. Az. Time Alt. Az. Time Alt. Az.
08 Oct 3.2 06:24:59 10° SSW 06:27:02 13° S 06:29:06 10° SSE visible
09 Oct 3.2 06:17:42 10° SSW 06:19:44 13° S 06:21:46 10° SSE visible
10 Oct 3.1 06:10:31 10° SSW 06:12:24 13° S 06:14:18 10° SSE visible
